Location: Perugia
(43.1330°N, 12.3670°E)
Time: 05:02:53
(UTC+01:00)

ISS - Pass Details

Date: 02 February 2021
Orbit: 417 x 422 km, 51.6° (Epoch: 05 March)

Event Time Altitude Azimuth Distance (km) Brightness Sun altitude
Rises 19:43:21 0° 299° (WNW) 2,374 1.0 -25.6°
Reaches altitude 10° 19:45:30 10° 294° (WNW) 1,506 -0.1 -26.0°
Enters shadow 19:47:21 28° 278° (W) 828 -1.7 -26.3°
